Location: Gisborne
(38.6530°S, 178.0040°E)
Time: 06:21:21
(UTC+12:00)

ISS - Visible Passes

Search period start: 15 August 2020 00:00
Search period end: 25 August 2020 00:00
Orbit: 418 x 420 km, 51.6° (Epoch: 15 August)

Date Brightness Start Highest point End Pass type
(mag) Time Alt. Az. Time Alt. Az. Time Alt. Az.
18 Aug -2.9 19:15:22 10° NW 19:17:53 41° N 19:17:53 41° N visible
19 Aug -2.7 18:28:10 10° NNW 18:31:11 30° NE 18:32:49 20° E visible
19 Aug -0.7 20:04:51 10° W 20:05:48 16° W 20:05:48 16° W visible
20 Aug -3.0 19:16:55 10° WNW 19:20:14 48° SW 19:20:37 46° S visible
21 Aug -3.7 18:29:10 10° NW 18:32:34 84° SW 18:35:19 15° SE visible
21 Aug -0.5 20:07:31 10° WSW 20:08:17 13° SW 20:08:17 13° SW visible
22 Aug -1.7 19:19:13 10° W 19:21:58 22° SSW 19:22:52 20° S visible
23 Aug -2.2 18:31:04 10° W 18:34:10 31° SSW 18:37:18 10° SE visible
24 Aug -1.1 19:22:08 10° SW 19:23:52 13° SSW 19:24:45 12° S visible
